Location: Brede
(50.9167°N, 0.6000°E)
Time: 17:15:14
(UTC+00:00)

CZ-2D R/B - Pass Details

Date: 08 August 2020
Orbit: 792 x 845 km, 98.7° (Epoch: 23 September)

Event Time Altitude Azimuth Distance (km) Brightness Sun altitude
Rises 01:47:12 0° 15° (NNE) 3,410 6.9 -19.3°
Reaches altitude 10° 01:49:35 10° 16° (NNE) 2,475 5.8 -19.1°
Maximum altitude 01:55:06 86° 106° (ESE) 855 2.2 -18.7°
Enters shadow 01:57:48 32° 194° (SSW) 1,424 2.8 -18.5°
